This is the latest recevied weather packets stored in our database for station/object KE8WAY. If no packets are shown the sender has not sent any weather packets the latest 10 day(s).
| Time | Temp. | Humidity | Pressure | Rain* | Wind** | Luminosity | Snow |
|---|---|---|---|---|---|---|---|
| 1777741709 | 7.22° C | 53% | 1017.5 hPa | 0 mm | - | 362 W/m² | - |
| 1777741405 | 7.22° C | 55% | 1017.5 hPa | 0 mm | - | 316 W/m² | - |
| 1777741101 | 6.67° C | 57% | 1017.7 hPa | 0 mm | - | 258 W/m² | - |
| 1777740798 | 7.22° C | 54% | 1017.5 hPa | 0 mm | - | 222 W/m² | - |
| 1777740495 | 7.22° C | 55% | 1017.5 hPa | 0 mm | - | 223 W/m² | - |
| 1777740193 | 6.67° C | 56% | 1017.8 hPa | 0 mm | - | 210 W/m² | - |
| 1777739888 | 6.67° C | 58% | 1017.8 hPa | 0 mm | - | 191 W/m² | - |
| 1777739585 | 6.67° C | 59% | 1017.8 hPa | 0 mm | - | 169 W/m² | - |
| 1777739283 | 6.67° C | 61% | 1017.8 hPa | 0 mm | - | 139 W/m² | - |
| 1777738979 | 6.67° C | 58% | 1017.8 hPa | 0 mm | - | 123 W/m² | - |
| 1777738675 | 6.11° C | 57% | 1018 hPa | 0 mm | - | 111 W/m² | - |
| 1777738372 | 6.11° C | 60% | 1017.9 hPa | 0 mm | - | 104 W/m² | - |
| 1777738070 | 6.11° C | 56% | 1018 hPa | 0 mm | - | 99 W/m² | - |
| 1777737769 | 6.11° C | 59% | 1017.8 hPa | 0 mm | - | 87 W/m² | - |
| 1777737467 | 6.11° C | 59% | 1017.9 hPa | 0 mm | - | 75 W/m² | - |
| 1777737165 | 6.11° C | 58% | 1017.7 hPa | 0 mm | - | 98 W/m² | - |
| 1777736859 | 6.67° C | 56% | 1017.8 hPa | 0 mm | - | 163 W/m² | - |
| 1777736247 | 6.67° C | 60% | 1017.6 hPa | 0 mm | - | 269 W/m² | - |
| 1777735944 | 6.11° C | 59% | 1017.7 hPa | 0 mm | - | 238 W/m² | - |
| 1777735641 | 6.11° C | 58% | 1017.7 hPa | 0 mm | - | 197 W/m² | - |
| 1777735338 | 6.11° C | 60% | 1017.6 hPa | 0 mm | - | 188 W/m² | - |
| 1777735036 | 6.11° C | 61% | 1017.5 hPa | 0 mm | - | 177 W/m² | - |
| 1777734733 | 6.11° C | 59% | 1017.6 hPa | 0 mm | - | 170 W/m² | - |
| 1777734430 | 6.11° C | 61% | 1017.5 hPa | 0 mm | - | 152 W/m² | - |
| 1777734126 | 6.11° C | 61% | 1017.5 hPa | 0 mm | - | 144 W/m² | - |
* Rain latest hour (hover to see other rain measurements)
** Current wind speed in m/s (hover to see current wind gust speed)